Location: Borz?cin
(51.1714°N, 19.6030°E)
Time: 22:21:00
(UTC+00:00)

SPOT 3 Rocket - Pass Details

Date: 19 May 2025
Orbit: 775 x 790 km, 98.5° (Epoch: 16 June)

Event Time Altitude Azimuth Distance (km) Brightness Sun altitude
Exits shadow 20:03:01 12° 166° (SSE) 2,156 5.3 -11.2°
Maximum altitude 20:07:44 84° 255° (WSW) 788 3.6 -11.6°
Drops below altitude 10° 20:12:54 10° 344° (NNW) 2,337 7.3 -12.1°
Sets 20:15:13 0° 345° (NNW) 3,269 8.3 -12.3°
